Year,Month,Day,Hour,Minute,Value (Times are PST for temperature in C)
2017,08,27,00,00,14.90
2017,08,27,00,01,14.90
2017,08,27,00,02,14.80
2017,08,27,00,03,14.80
2017,08,27,00,04,14.80
2017,08,27,00,05,14.80
2017,08,27,00,06,14.80
2017,08,27,00,07,14.80
2017,08,27,00,08,14.80
2017,08,27,00,09,14.80
2017,08,27,00,10,14.70
2017,08,27,00,11,14.70
2017,08,27,00,12,14.70
2017,08,27,00,13,14.70
2017,08,27,00,14,14.70
2017,08,27,00,15,14.70
2017,08,27,00,16,14.70
2017,08,27,00,17,14.60
2017,08,27,00,18,14.60
2017,08,27,00,19,14.60
2017,08,27,00,20,14.60
2017,08,27,00,21,14.60
2017,08,27,00,22,14.60
2017,08,27,00,23,14.60
2017,08,27,00,24,14.50
2017,08,27,00,25,14.50
2017,08,27,00,26,14.50
2017,08,27,00,27,14.50
2017,08,27,00,28,14.50
2017,08,27,00,29,14.40
2017,08,27,00,30,14.40
2017,08,27,00,31,14.40
2017,08,27,00,32,14.40
2017,08,27,00,33,14.40
2017,08,27,00,34,14.30
2017,08,27,00,35,14.30
2017,08,27,00,36,14.30
2017,08,27,00,37,14.30
2017,08,27,00,38,14.30
2017,08,27,00,39,14.30
2017,08,27,00,40,14.30
2017,08,27,00,41,14.30
2017,08,27,00,42,14.30
2017,08,27,00,43,14.30
2017,08,27,00,44,14.30
2017,08,27,00,45,14.30
2017,08,27,00,46,14.30
2017,08,27,00,47,14.20
2017,08,27,00,48,14.20
2017,08,27,00,49,14.20
2017,08,27,00,50,14.20
2017,08,27,00,51,14.20
2017,08,27,00,52,14.20
2017,08,27,00,53,14.20
2017,08,27,00,54,14.20
2017,08,27,00,55,14.20
2017,08,27,00,56,14.20
2017,08,27,00,57,14.20
2017,08,27,00,58,14.20
2017,08,27,00,59,14.20
2017,08,27,01,00,14.20
2017,08,27,01,01,14.20
2017,08,27,01,02,14.20
2017,08,27,01,03,14.20
2017,08,27,01,04,14.10
2017,08,27,01,05,14.10
2017,08,27,01,06,14.10
2017,08,27,01,07,14.10
2017,08,27,01,08,14.10
2017,08,27,01,09,14.10
2017,08,27,01,10,14.10
2017,08,27,01,11,14.10
2017,08,27,01,12,14.10
2017,08,27,01,13,14.10
2017,08,27,01,14,14.10
2017,08,27,01,15,14.10
2017,08,27,01,16,14.10
2017,08,27,01,17,14.10
2017,08,27,01,18,14.20
2017,08,27,01,19,14.20
2017,08,27,01,20,14.20
2017,08,27,01,21,14.20
2017,08,27,01,22,14.30
2017,08,27,01,23,14.30
2017,08,27,01,24,14.40
2017,08,27,01,25,14.50
2017,08,27,01,26,14.50
2017,08,27,01,27,14.60
2017,08,27,01,28,14.70
2017,08,27,01,29,14.70
2017,08,27,01,30,14.80
2017,08,27,01,31,14.90
2017,08,27,01,32,14.90
2017,08,27,01,33,15.00
2017,08,27,01,34,15.00
2017,08,27,01,35,15.00
2017,08,27,01,36,15.10
2017,08,27,01,37,15.10
2017,08,27,01,38,15.10
2017,08,27,01,39,15.10
2017,08,27,01,40,15.10
2017,08,27,01,41,15.10
2017,08,27,01,42,15.10
2017,08,27,01,43,15.10
2017,08,27,01,44,15.10
2017,08,27,01,45,15.10
2017,08,27,01,46,15.00
2017,08,27,01,47,15.00
2017,08,27,01,48,15.00
2017,08,27,01,49,14.90
2017,08,27,01,50,14.90
2017,08,27,01,51,14.90
2017,08,27,01,52,14.80
2017,08,27,01,53,14.80
2017,08,27,01,54,14.80
2017,08,27,01,55,14.70
2017,08,27,01,56,14.70
2017,08,27,01,57,14.70
2017,08,27,01,58,14.60
2017,08,27,01,59,14.60
2017,08,27,02,00,14.50
2017,08,27,02,01,14.50
2017,08,27,02,02,14.50
2017,08,27,02,03,14.40
2017,08,27,02,04,14.40
2017,08,27,02,05,14.30
2017,08,27,02,06,14.30
2017,08,27,02,07,14.30
2017,08,27,02,08,14.20
2017,08,27,02,09,14.20
2017,08,27,02,10,14.20
2017,08,27,02,11,14.10
2017,08,27,02,12,14.10
2017,08,27,02,13,14.10
2017,08,27,02,14,14.00
2017,08,27,02,15,14.00
2017,08,27,02,16,14.00
2017,08,27,02,17,13.90
2017,08,27,02,18,13.90
2017,08,27,02,19,13.90
2017,08,27,02,20,13.80
2017,08,27,02,21,13.80
2017,08,27,02,22,13.80
2017,08,27,02,23,13.80
2017,08,27,02,24,13.80
2017,08,27,02,25,13.70
2017,08,27,02,26,13.70
2017,08,27,02,27,13.70
2017,08,27,02,28,13.70
2017,08,27,02,29,13.70
2017,08,27,02,30,13.60
2017,08,27,02,31,13.60
2017,08,27,02,32,13.60
2017,08,27,02,33,13.60
2017,08,27,02,34,13.60
2017,08,27,02,35,13.60
2017,08,27,02,36,13.50
2017,08,27,02,37,13.50
2017,08,27,02,38,13.50
2017,08,27,02,39,13.50
2017,08,27,02,40,13.50
2017,08,27,02,41,13.40
2017,08,27,02,42,13.40
2017,08,27,02,43,13.40
2017,08,27,02,44,13.40
2017,08,27,02,45,13.40
2017,08,27,02,46,13.40
2017,08,27,02,47,13.40
2017,08,27,02,48,13.30
2017,08,27,02,49,13.30
2017,08,27,02,50,13.30
2017,08,27,02,51,13.30
2017,08,27,02,52,13.30
2017,08,27,02,53,13.30
2017,08,27,02,54,13.30
2017,08,27,02,55,13.30
2017,08,27,02,56,13.30
2017,08,27,02,57,13.20
2017,08,27,02,58,13.20
2017,08,27,02,59,13.20
2017,08,27,03,00,13.20
2017,08,27,03,01,13.20
2017,08,27,03,02,13.20
2017,08,27,03,03,13.10
2017,08,27,03,04,13.10
2017,08,27,03,05,13.10
2017,08,27,03,06,13.10
2017,08,27,03,07,13.10
2017,08,27,03,08,13.10
2017,08,27,03,09,13.10
2017,08,27,03,10,13.10
2017,08,27,03,11,13.00
2017,08,27,03,12,13.00
2017,08,27,03,13,13.00
2017,08,27,03,14,13.00
2017,08,27,03,15,13.00
2017,08,27,03,16,12.90
2017,08,27,03,17,12.90
2017,08,27,03,18,12.90
2017,08,27,03,19,12.90
2017,08,27,03,20,12.90
2017,08,27,03,21,12.90
2017,08,27,03,22,12.90
2017,08,27,03,23,12.90
2017,08,27,03,24,12.80
2017,08,27,03,25,12.80
2017,08,27,03,26,12.80
2017,08,27,03,27,12.80
2017,08,27,03,28,12.80
2017,08,27,03,29,12.80
2017,08,27,03,30,12.80
2017,08,27,03,31,12.70
2017,08,27,03,32,12.70
2017,08,27,03,33,12.70
2017,08,27,03,34,12.70
2017,08,27,03,35,12.70
2017,08,27,03,36,12.70
2017,08,27,03,37,12.70
2017,08,27,03,38,12.70
2017,08,27,03,39,12.70
2017,08,27,03,40,12.70
2017,08,27,03,41,12.60
2017,08,27,03,42,12.60
2017,08,27,03,43,12.60
2017,08,27,03,44,12.60
2017,08,27,03,45,12.60
2017,08,27,03,46,12.60
2017,08,27,03,47,12.60
2017,08,27,03,48,12.50
2017,08,27,03,49,12.50
2017,08,27,03,50,12.50
2017,08,27,03,51,12.50
2017,08,27,03,52,12.50
2017,08,27,03,53,12.40
2017,08,27,03,54,12.40
2017,08,27,03,55,12.40
2017,08,27,03,56,12.40
2017,08,27,03,57,12.40
2017,08,27,03,58,12.40
2017,08,27,03,59,12.40
2017,08,27,04,00,12.40
2017,08,27,04,01,12.40
2017,08,27,04,02,12.40
2017,08,27,04,03,12.30
2017,08,27,04,04,12.30
2017,08,27,04,05,12.30
2017,08,27,04,06,12.30
2017,08,27,04,07,12.30
2017,08,27,04,08,12.30
2017,08,27,04,09,12.30
2017,08,27,04,10,12.30
2017,08,27,04,11,12.30
2017,08,27,04,12,12.30
2017,08,27,04,13,12.30
2017,08,27,04,14,12.30
2017,08,27,04,15,12.30
2017,08,27,04,16,12.30
2017,08,27,04,17,12.30
2017,08,27,04,18,12.30
2017,08,27,04,19,12.30
2017,08,27,04,20,12.30
2017,08,27,04,21,12.30
2017,08,27,04,22,12.30
2017,08,27,04,23,12.30
2017,08,27,04,24,12.30
2017,08,27,04,25,12.30
2017,08,27,04,26,12.30
2017,08,27,04,27,12.30
2017,08,27,04,28,12.30
2017,08,27,04,29,12.30
2017,08,27,04,30,12.30
2017,08,27,04,31,12.30
2017,08,27,04,32,12.30
2017,08,27,04,33,12.30
2017,08,27,04,34,12.30
2017,08,27,04,35,12.30
2017,08,27,04,36,12.30
2017,08,27,04,37,12.30
2017,08,27,04,38,12.30
2017,08,27,04,39,12.30
2017,08,27,04,40,12.30
2017,08,27,04,41,12.30
2017,08,27,04,42,12.30
2017,08,27,04,43,12.30
2017,08,27,04,44,12.30
2017,08,27,04,45,12.30
2017,08,27,04,46,12.30
2017,08,27,04,47,12.30
2017,08,27,04,48,12.30
2017,08,27,04,49,12.30
2017,08,27,04,50,12.30
2017,08,27,04,51,12.30
2017,08,27,04,52,12.30
2017,08,27,04,53,12.30
2017,08,27,04,54,12.30
2017,08,27,04,55,12.20
2017,08,27,04,56,12.20
2017,08,27,04,57,12.20
2017,08,27,04,58,12.20
2017,08,27,04,59,12.20
2017,08,27,05,00,12.20
2017,08,27,05,01,12.20
2017,08,27,05,02,12.20
2017,08,27,05,03,12.20
2017,08,27,05,04,12.20
2017,08,27,05,05,12.10
2017,08,27,05,06,12.10
2017,08,27,05,07,12.10
2017,08,27,05,08,12.10
2017,08,27,05,09,12.10
2017,08,27,05,10,12.10
2017,08,27,05,11,12.10
2017,08,27,05,12,12.00
2017,08,27,05,13,12.00
2017,08,27,05,14,12.00
2017,08,27,05,15,12.00
2017,08,27,05,16,12.00
2017,08,27,05,17,11.90
2017,08,27,05,18,11.90
2017,08,27,05,19,11.90
2017,08,27,05,20,11.90
2017,08,27,05,21,11.90
2017,08,27,05,22,11.90
2017,08,27,05,23,11.90
2017,08,27,05,24,11.90
2017,08,27,05,25,11.90
2017,08,27,05,26,11.90
2017,08,27,05,27,11.90
2017,08,27,05,28,11.90
2017,08,27,05,29,11.90
2017,08,27,05,30,11.90
2017,08,27,05,31,11.90
2017,08,27,05,32,11.90
2017,08,27,05,33,11.90
2017,08,27,05,34,11.90
2017,08,27,05,35,11.90
2017,08,27,05,36,11.90
2017,08,27,05,37,11.90
2017,08,27,05,38,11.80
2017,08,27,05,39,11.80
2017,08,27,05,40,11.80
2017,08,27,05,41,11.80
2017,08,27,05,42,11.80
2017,08,27,05,43,11.80
2017,08,27,05,44,11.80
2017,08,27,05,45,11.80
2017,08,27,05,46,11.80
2017,08,27,05,47,11.80
2017,08,27,05,48,11.70
2017,08,27,05,49,11.70
2017,08,27,05,50,11.70
2017,08,27,05,51,11.70
2017,08,27,05,52,11.70
2017,08,27,05,53,11.70
2017,08,27,05,54,11.70
2017,08,27,05,55,11.70
2017,08,27,05,56,11.70
2017,08,27,05,57,11.70
2017,08,27,05,58,11.70
2017,08,27,05,59,11.70
2017,08,27,06,00,11.70
2017,08,27,06,01,11.70
2017,08,27,06,02,11.70
2017,08,27,06,03,11.70
2017,08,27,06,04,11.70
2017,08,27,06,05,11.70
2017,08,27,06,06,11.70
2017,08,27,06,07,11.70
2017,08,27,06,08,11.70
2017,08,27,06,09,11.70
2017,08,27,06,10,11.70
2017,08,27,06,11,11.70
2017,08,27,06,12,11.70
2017,08,27,06,13,11.70
2017,08,27,06,14,11.70
2017,08,27,06,15,11.70
2017,08,27,06,16,11.70
2017,08,27,06,17,11.70
2017,08,27,06,18,11.70
2017,08,27,06,19,11.70
2017,08,27,06,20,11.70
2017,08,27,06,21,11.70
2017,08,27,06,22,11.70
2017,08,27,06,23,11.70
2017,08,27,06,24,11.60
2017,08,27,06,25,11.60
2017,08,27,06,26,11.60
2017,08,27,06,27,11.60
2017,08,27,06,28,11.60
2017,08,27,06,29,11.60
2017,08,27,06,30,11.60
2017,08,27,06,31,11.60
2017,08,27,06,32,11.60
2017,08,27,06,33,11.60
2017,08,27,06,34,11.60
2017,08,27,06,35,11.60
2017,08,27,06,36,11.60
2017,08,27,06,37,11.60
2017,08,27,06,38,11.70
2017,08,27,06,39,11.70
2017,08,27,06,40,11.70
2017,08,27,06,41,11.70
2017,08,27,06,42,11.70
2017,08,27,06,43,11.70
2017,08,27,06,44,11.80
2017,08,27,06,45,11.80
2017,08,27,06,46,11.80
2017,08,27,06,47,11.80
2017,08,27,06,48,11.80
2017,08,27,06,49,11.90
2017,08,27,06,50,11.90
2017,08,27,06,51,11.90
2017,08,27,06,52,11.90
2017,08,27,06,53,11.90
2017,08,27,06,54,11.90
2017,08,27,06,55,11.90
2017,08,27,06,56,11.90
2017,08,27,06,57,12.00
2017,08,27,06,58,12.00
2017,08,27,06,59,12.00
2017,08,27,07,00,12.00
2017,08,27,07,01,12.00
2017,08,27,07,02,12.00
2017,08,27,07,03,12.00
2017,08,27,07,04,12.10
2017,08,27,07,05,12.10
2017,08,27,07,06,12.10
2017,08,27,07,07,12.10
2017,08,27,07,08,12.10
2017,08,27,07,09,12.10
2017,08,27,07,10,12.10
2017,08,27,07,11,12.10
2017,08,27,07,12,12.10
2017,08,27,07,13,12.10
2017,08,27,07,14,12.10
2017,08,27,07,15,12.10
2017,08,27,07,16,12.10
2017,08,27,07,17,12.10
2017,08,27,07,18,12.20
2017,08,27,07,19,12.20
2017,08,27,07,20,12.20
2017,08,27,07,21,12.20
2017,08,27,07,22,12.20
2017,08,27,07,23,12.20
2017,08,27,07,24,12.20
2017,08,27,07,25,12.30
2017,08,27,07,26,12.30
2017,08,27,07,27,12.30
2017,08,27,07,28,12.30
2017,08,27,07,29,12.30
2017,08,27,07,30,12.30
2017,08,27,07,31,12.40
2017,08,27,07,32,12.40
2017,08,27,07,33,12.40
2017,08,27,07,34,12.40
2017,08,27,07,35,12.40
2017,08,27,07,36,12.50
2017,08,27,07,37,12.50
2017,08,27,07,38,12.60
2017,08,27,07,39,12.60
2017,08,27,07,40,12.60
2017,08,27,07,41,12.60
2017,08,27,07,42,12.70
2017,08,27,07,43,12.70
2017,08,27,07,44,12.80
2017,08,27,07,45,12.80
2017,08,27,07,46,12.90
2017,08,27,07,47,13.00
2017,08,27,07,48,13.00
2017,08,27,07,49,13.10
2017,08,27,07,50,13.20
2017,08,27,07,51,13.30
2017,08,27,07,52,13.40
2017,08,27,07,53,13.40
2017,08,27,07,54,13.50
2017,08,27,07,55,13.60
2017,08,27,07,56,13.70
2017,08,27,07,57,13.70
2017,08,27,07,58,13.80
2017,08,27,07,59,13.90
2017,08,27,08,00,13.90
2017,08,27,08,01,14.00
2017,08,27,08,02,14.10
2017,08,27,08,03,14.10
2017,08,27,08,04,14.20
2017,08,27,08,05,14.20
2017,08,27,08,06,14.30
2017,08,27,08,07,14.30
2017,08,27,08,08,14.40
2017,08,27,08,09,14.40
2017,08,27,08,10,14.50
2017,08,27,08,11,14.50
2017,08,27,08,12,14.60
2017,08,27,08,13,14.60
2017,08,27,08,14,14.60
2017,08,27,08,15,14.70
2017,08,27,08,16,14.70
2017,08,27,08,17,14.80
2017,08,27,08,18,14.80
2017,08,27,08,19,14.80
2017,08,27,08,20,14.80
2017,08,27,08,21,14.90
2017,08,27,08,22,14.90
2017,08,27,08,23,15.00
2017,08,27,08,24,15.00
2017,08,27,08,25,15.10
2017,08,27,08,26,15.20
2017,08,27,08,27,15.30
2017,08,27,08,28,15.40
2017,08,27,08,29,15.50
2017,08,27,08,30,15.60
2017,08,27,08,31,15.70
2017,08,27,08,32,15.80
2017,08,27,08,33,16.00
2017,08,27,08,34,16.20
2017,08,27,08,35,16.40
2017,08,27,08,36,16.50
2017,08,27,08,37,16.70
2017,08,27,08,38,16.90
2017,08,27,08,39,17.00
2017,08,27,08,40,17.20
2017,08,27,08,41,17.30
2017,08,27,08,42,17.50
2017,08,27,08,43,17.60
2017,08,27,08,44,17.70
2017,08,27,08,45,17.90
2017,08,27,08,46,18.00
2017,08,27,08,47,18.10
2017,08,27,08,48,18.20
2017,08,27,08,49,18.30
2017,08,27,08,50,18.30
2017,08,27,08,51,18.40
2017,08,27,08,52,18.50
2017,08,27,08,53,18.60
2017,08,27,08,54,18.70
2017,08,27,08,55,18.80
2017,08,27,08,56,18.80
2017,08,27,08,57,18.90
2017,08,27,08,58,19.00
2017,08,27,08,59,19.10
2017,08,27,09,00,19.10
2017,08,27,09,01,19.20
2017,08,27,09,02,19.20
2017,08,27,09,03,19.30
2017,08,27,09,04,19.30
2017,08,27,09,05,19.40
2017,08,27,09,06,19.40
2017,08,27,09,07,19.50
2017,08,27,09,08,19.50
2017,08,27,09,09,19.60
2017,08,27,09,10,19.60
2017,08,27,09,11,19.70
2017,08,27,09,12,19.70
2017,08,27,09,13,19.80
2017,08,27,09,14,19.80
2017,08,27,09,15,19.90
2017,08,27,09,16,19.90
2017,08,27,09,17,19.90
2017,08,27,09,18,20.00
2017,08,27,09,19,20.00
2017,08,27,09,20,20.10
2017,08,27,09,21,20.10
2017,08,27,09,22,20.20
2017,08,27,09,23,20.30
2017,08,27,09,24,20.30
2017,08,27,09,25,20.30
2017,08,27,09,26,20.40
2017,08,27,09,27,20.40
2017,08,27,09,28,20.40
2017,08,27,09,29,20.40
2017,08,27,09,30,20.40
2017,08,27,09,31,20.40
2017,08,27,09,32,20.40
2017,08,27,09,33,20.40
2017,08,27,09,34,20.50
2017,08,27,09,35,20.50
2017,08,27,09,36,20.50
2017,08,27,09,37,20.50
2017,08,27,09,38,20.50
2017,08,27,09,39,20.50
2017,08,27,09,40,20.50
2017,08,27,09,41,20.40
2017,08,27,09,42,20.40
2017,08,27,09,43,20.40
2017,08,27,09,44,20.40
2017,08,27,09,45,20.40
2017,08,27,09,46,20.40
2017,08,27,09,47,20.50
2017,08,27,09,48,20.50
2017,08,27,09,49,20.60
2017,08,27,09,50,20.60
2017,08,27,09,51,20.60
2017,08,27,09,52,20.60
2017,08,27,09,53,20.70
2017,08,27,09,54,20.70
2017,08,27,09,55,20.70
2017,08,27,09,56,20.80
2017,08,27,09,57,20.80
2017,08,27,09,58,20.80
2017,08,27,09,59,20.80
2017,08,27,10,00,20.90
2017,08,27,10,01,20.90
2017,08,27,10,02,20.90
2017,08,27,10,03,20.90
2017,08,27,10,04,20.90
2017,08,27,10,05,20.90
2017,08,27,10,06,20.90
2017,08,27,10,07,20.90
2017,08,27,10,08,20.90
2017,08,27,10,09,20.90
2017,08,27,10,10,20.90
2017,08,27,10,11,20.90
2017,08,27,10,12,21.00
2017,08,27,10,13,21.00
2017,08,27,10,14,21.00
2017,08,27,10,15,21.00
2017,08,27,10,16,21.00
2017,08,27,10,17,21.00
2017,08,27,10,18,21.00
2017,08,27,10,19,21.00
2017,08,27,10,20,21.00
2017,08,27,10,21,21.10
2017,08,27,10,22,21.10
2017,08,27,10,23,21.10
2017,08,27,10,24,21.10
2017,08,27,10,25,21.20
2017,08,27,10,26,21.20
2017,08,27,10,27,21.20
2017,08,27,10,28,21.20
2017,08,27,10,29,21.20
2017,08,27,10,30,21.20
2017,08,27,10,31,21.30
2017,08,27,10,32,21.30
2017,08,27,10,33,21.30
2017,08,27,10,34,21.40
2017,08,27,10,35,21.40
2017,08,27,10,36,21.50
2017,08,27,10,37,21.60
2017,08,27,10,38,21.70
2017,08,27,10,39,21.70
2017,08,27,10,40,21.70
2017,08,27,10,41,21.70
2017,08,27,10,42,21.70
2017,08,27,10,43,21.70
2017,08,27,10,44,21.70
2017,08,27,10,45,21.70
2017,08,27,10,46,21.70
2017,08,27,10,47,21.70
2017,08,27,10,48,21.70
2017,08,27,10,49,21.80
2017,08,27,10,50,21.80
2017,08,27,10,51,21.80
2017,08,27,10,52,21.90
2017,08,27,10,53,21.90
2017,08,27,10,54,21.90
2017,08,27,10,55,21.90
2017,08,27,10,56,22.00
2017,08,27,10,57,22.00
2017,08,27,10,58,22.00
2017,08,27,10,59,22.00
2017,08,27,11,00,22.00
2017,08,27,11,01,22.00
2017,08,27,11,02,22.00
2017,08,27,11,03,22.00
2017,08,27,11,04,22.10
2017,08,27,11,05,22.10
2017,08,27,11,06,22.10
2017,08,27,11,07,22.10
2017,08,27,11,08,22.10
2017,08,27,11,09,22.10
2017,08,27,11,10,22.20
2017,08,27,11,11,22.20
2017,08,27,11,12,22.30
2017,08,27,11,13,22.30
2017,08,27,11,14,22.40
2017,08,27,11,15,22.50
2017,08,27,11,16,22.60
2017,08,27,11,17,22.70
2017,08,27,11,18,22.80
2017,08,27,11,19,22.80
2017,08,27,11,20,22.80
2017,08,27,11,21,22.90
2017,08,27,11,22,23.00
2017,08,27,11,23,23.10
2017,08,27,11,24,23.10
2017,08,27,11,25,23.10
2017,08,27,11,26,23.20
2017,08,27,11,27,23.30
2017,08,27,11,28,23.30
2017,08,27,11,29,23.30
2017,08,27,11,30,23.30
2017,08,27,11,31,23.40
2017,08,27,11,32,23.40
2017,08,27,11,33,23.50
2017,08,27,11,34,23.50
2017,08,27,11,35,23.60
2017,08,27,11,36,23.70
2017,08,27,11,37,23.70
2017,08,27,11,38,23.70
2017,08,27,11,39,23.70
2017,08,27,11,40,23.80
2017,08,27,11,41,23.80
2017,08,27,11,42,23.80
2017,08,27,11,43,23.80
2017,08,27,11,44,23.80
2017,08,27,11,45,23.80
2017,08,27,11,46,23.90
2017,08,27,11,47,23.90
2017,08,27,11,48,24.00
2017,08,27,11,49,24.00
2017,08,27,11,50,24.10
2017,08,27,11,51,24.10
2017,08,27,11,52,24.20
2017,08,27,11,53,24.20
2017,08,27,11,54,24.20
2017,08,27,11,55,24.20
2017,08,27,11,56,24.20
2017,08,27,11,57,24.30
2017,08,27,11,58,24.40
2017,08,27,11,59,24.40
2017,08,27,12,00,24.50
2017,08,27,12,01,24.60
2017,08,27,12,02,24.60
2017,08,27,12,03,24.70
2017,08,27,12,04,24.80
2017,08,27,12,05,24.80
2017,08,27,12,06,24.90
2017,08,27,12,07,25.00
2017,08,27,12,08,25.10
2017,08,27,12,09,25.20
2017,08,27,12,10,25.30
2017,08,27,12,11,25.40
2017,08,27,12,12,25.50
2017,08,27,12,13,25.60
2017,08,27,12,14,25.70
2017,08,27,12,15,25.70
2017,08,27,12,16,25.70
2017,08,27,12,17,25.70
2017,08,27,12,18,25.70
2017,08,27,12,19,25.70
2017,08,27,12,20,25.60
2017,08,27,12,21,25.60
2017,08,27,12,22,25.60
2017,08,27,12,23,25.50
2017,08,27,12,24,25.50
2017,08,27,12,25,25.50
2017,08,27,12,26,25.40
2017,08,27,12,27,25.40
2017,08,27,12,28,25.30
2017,08,27,12,29,25.30
2017,08,27,12,30,25.30
2017,08,27,12,31,25.30
2017,08,27,12,32,25.40
2017,08,27,12,33,25.40
2017,08,27,12,34,25.50
2017,08,27,12,35,25.60
2017,08,27,12,36,25.70
2017,08,27,12,37,25.80
2017,08,27,12,38,25.90
2017,08,27,12,39,25.90
2017,08,27,12,40,25.90
2017,08,27,12,41,26.00
2017,08,27,12,42,26.00
2017,08,27,12,43,26.10
2017,08,27,12,44,26.20
2017,08,27,12,45,26.20
2017,08,27,12,46,26.10
2017,08,27,12,47,26.10
2017,08,27,12,48,26.10
2017,08,27,12,49,26.00
2017,08,27,12,50,26.00
2017,08,27,12,51,26.00
2017,08,27,12,52,26.00
2017,08,27,12,53,26.00
2017,08,27,12,54,26.10
2017,08,27,12,55,26.10
2017,08,27,12,56,26.20
2017,08,27,12,57,26.30
2017,08,27,12,58,26.40
2017,08,27,12,59,26.50
2017,08,27,13,00,26.40
2017,08,27,13,01,26.30
2017,08,27,13,02,26.20
2017,08,27,13,03,26.10
2017,08,27,13,04,26.10
2017,08,27,13,05,26.10
2017,08,27,13,06,26.10
2017,08,27,13,07,26.10
2017,08,27,13,08,26.10
2017,08,27,13,09,26.20
2017,08,27,13,10,26.30
2017,08,27,13,11,26.40
2017,08,27,13,12,26.40
2017,08,27,13,13,26.50
2017,08,27,13,14,26.60
2017,08,27,13,15,26.60
2017,08,27,13,16,26.50
2017,08,27,13,17,26.50
2017,08,27,13,18,26.40
2017,08,27,13,19,26.40
2017,08,27,13,20,26.30
2017,08,27,13,21,26.30
2017,08,27,13,22,26.20
2017,08,27,13,23,26.20
2017,08,27,13,24,26.20
2017,08,27,13,25,26.20
2017,08,27,13,26,26.20
2017,08,27,13,27,26.10
2017,08,27,13,28,26.00
2017,08,27,13,29,26.10
2017,08,27,13,30,26.10
2017,08,27,13,31,26.20
2017,08,27,13,32,26.20
2017,08,27,13,33,26.20
2017,08,27,13,34,26.30
2017,08,27,13,35,26.40
2017,08,27,13,36,26.50
2017,08,27,13,37,26.50
2017,08,27,13,38,26.60
2017,08,27,13,39,26.60
2017,08,27,13,40,26.70
2017,08,27,13,41,26.80
2017,08,27,13,42,26.80
2017,08,27,13,43,26.80
2017,08,27,13,44,26.80
2017,08,27,13,45,26.80
2017,08,27,13,46,26.80
2017,08,27,13,47,26.70
2017,08,27,13,48,26.70
2017,08,27,13,49,26.70
2017,08,27,13,50,26.70
2017,08,27,13,51,26.70
2017,08,27,13,52,26.70
2017,08,27,13,53,26.60
2017,08,27,13,54,26.60
2017,08,27,13,55,26.70
2017,08,27,13,56,26.70
2017,08,27,13,57,26.80
2017,08,27,13,58,26.80
2017,08,27,13,59,26.90
2017,08,27,14,00,27.00
2017,08,27,14,01,27.00
2017,08,27,14,02,27.00
2017,08,27,14,03,27.10
2017,08,27,14,04,27.10
2017,08,27,14,05,27.10
2017,08,27,14,06,27.00
2017,08,27,14,07,26.90
2017,08,27,14,08,26.90
2017,08,27,14,09,26.90
2017,08,27,14,10,26.90
2017,08,27,14,11,26.90
2017,08,27,14,12,26.90
2017,08,27,14,13,26.90
2017,08,27,14,14,26.90
2017,08,27,14,15,26.90
2017,08,27,14,16,26.80
2017,08,27,14,17,26.70
2017,08,27,14,18,26.70
2017,08,27,14,19,26.70
2017,08,27,14,20,26.80
2017,08,27,14,21,26.80
2017,08,27,14,22,26.80
2017,08,27,14,23,26.70
2017,08,27,14,24,26.80
2017,08,27,14,25,26.80
2017,08,27,14,26,26.80
2017,08,27,14,27,26.90
2017,08,27,14,28,26.90
2017,08,27,14,29,27.00
2017,08,27,14,30,27.00
2017,08,27,14,31,27.20
2017,08,27,14,32,27.20
2017,08,27,14,33,27.30
2017,08,27,14,34,27.30
2017,08,27,14,35,27.30
2017,08,27,14,36,27.30
2017,08,27,14,37,27.30
2017,08,27,14,38,27.30
2017,08,27,14,39,27.30
2017,08,27,14,40,27.30
2017,08,27,14,41,27.30
2017,08,27,14,42,27.40
2017,08,27,14,43,27.40
2017,08,27,14,44,27.40
2017,08,27,14,45,27.50
2017,08,27,14,46,27.60
2017,08,27,14,47,27.70
2017,08,27,14,48,27.70
2017,08,27,14,49,27.80
2017,08,27,14,50,27.90
2017,08,27,14,51,27.90
2017,08,27,14,52,27.90
2017,08,27,14,53,27.90
2017,08,27,14,54,27.90
2017,08,27,14,55,27.90
2017,08,27,14,56,28.00
2017,08,27,14,57,28.00
2017,08,27,14,58,28.10
2017,08,27,14,59,28.10
2017,08,27,15,00,28.10
2017,08,27,15,01,28.10
2017,08,27,15,02,28.00
2017,08,27,15,03,28.10
2017,08,27,15,04,28.10
2017,08,27,15,05,28.20
2017,08,27,15,06,28.20
2017,08,27,15,07,28.30
2017,08,27,15,08,28.30
2017,08,27,15,09,28.20
2017,08,27,15,10,28.10
2017,08,27,15,11,28.10
2017,08,27,15,12,28.00
2017,08,27,15,13,28.00
2017,08,27,15,14,27.90
2017,08,27,15,15,27.90
2017,08,27,15,16,27.80
2017,08,27,15,17,27.80
2017,08,27,15,18,27.80
2017,08,27,15,19,27.80
2017,08,27,15,20,27.70
2017,08,27,15,21,27.60
2017,08,27,15,22,27.60
2017,08,27,15,23,27.60
2017,08,27,15,24,27.60
2017,08,27,15,25,27.60
2017,08,27,15,26,27.70
2017,08,27,15,27,27.80
2017,08,27,15,28,27.90
2017,08,27,15,29,27.90
2017,08,27,15,30,28.00
2017,08,27,15,31,28.00
2017,08,27,15,32,28.10
2017,08,27,15,33,28.20
2017,08,27,15,34,28.20
2017,08,27,15,35,28.30
2017,08,27,15,36,28.30
2017,08,27,15,37,28.30
2017,08,27,15,38,28.20
2017,08,27,15,39,28.10
2017,08,27,15,40,28.10
2017,08,27,15,41,28.10
2017,08,27,15,42,28.00
2017,08,27,15,43,27.90
2017,08,27,15,44,27.70
2017,08,27,15,45,27.60
2017,08,27,15,46,27.50
2017,08,27,15,47,27.50
2017,08,27,15,48,27.40
2017,08,27,15,49,27.40
2017,08,27,15,50,27.50
2017,08,27,15,51,27.50
2017,08,27,15,52,27.50
2017,08,27,15,53,27.60
2017,08,27,15,54,27.60
2017,08,27,15,55,27.70
2017,08,27,15,56,27.80
2017,08,27,15,57,27.80
2017,08,27,15,58,27.90
2017,08,27,15,59,27.90
2017,08,27,16,00,28.00
2017,08,27,16,01,28.00
2017,08,27,16,02,28.10
2017,08,27,16,03,28.10
2017,08,27,16,04,28.20
2017,08,27,16,05,28.20
2017,08,27,16,06,28.30
2017,08,27,16,07,28.30
2017,08,27,16,08,28.40
2017,08,27,16,09,28.50
2017,08,27,16,10,28.50
2017,08,27,16,11,28.60
2017,08,27,16,12,28.60
2017,08,27,16,13,28.60
2017,08,27,16,14,28.70
2017,08,27,16,15,28.70
2017,08,27,16,16,28.70
2017,08,27,16,17,28.70
2017,08,27,16,18,28.80
2017,08,27,16,19,28.80
2017,08,27,16,20,28.80
2017,08,27,16,21,28.80
2017,08,27,16,22,28.80
2017,08,27,16,23,28.80
2017,08,27,16,24,28.70
2017,08,27,16,25,28.70
2017,08,27,16,26,28.70
2017,08,27,16,27,28.70
2017,08,27,16,28,28.70
2017,08,27,16,29,28.70
2017,08,27,16,30,28.70
2017,08,27,16,31,28.70
2017,08,27,16,32,28.70
2017,08,27,16,33,28.80
2017,08,27,16,34,28.80
2017,08,27,16,35,28.80
2017,08,27,16,36,28.90
2017,08,27,16,37,29.00
2017,08,27,16,38,29.10
2017,08,27,16,39,29.20
2017,08,27,16,40,29.20
2017,08,27,16,41,29.30
2017,08,27,16,42,29.20
2017,08,27,16,43,29.20
2017,08,27,16,44,29.10
2017,08,27,16,45,29.10
2017,08,27,16,46,29.00
2017,08,27,16,47,28.90
2017,08,27,16,48,28.80
2017,08,27,16,49,28.80
2017,08,27,16,50,28.70
2017,08,27,16,51,28.70
2017,08,27,16,52,28.70
2017,08,27,16,53,28.70
2017,08,27,16,54,28.70
2017,08,27,16,55,28.80
2017,08,27,16,56,28.80
2017,08,27,16,57,28.80
2017,08,27,16,58,28.90
2017,08,27,16,59,28.90
2017,08,27,17,00,29.00
2017,08,27,17,01,29.00
2017,08,27,17,02,29.10
2017,08,27,17,03,29.20
2017,08,27,17,04,29.20
2017,08,27,17,05,29.20
2017,08,27,17,06,29.30
2017,08,27,17,07,29.30
2017,08,27,17,08,29.30
2017,08,27,17,09,29.30
2017,08,27,17,10,29.30
2017,08,27,17,11,29.30
2017,08,27,17,12,29.30
2017,08,27,17,13,29.30
2017,08,27,17,14,29.30
2017,08,27,17,15,29.30
2017,08,27,17,16,29.20
2017,08,27,17,17,29.30
2017,08,27,17,18,29.30
2017,08,27,17,19,29.30